Voltar ao catálogo

CZ-6A DEB

AtivoPO
NORAD 60662·DEBRIS·🇨🇳 China

Lançado Aug 6, 2024 de Taiyuan Satellite Launch Center

Loading…

Próximas Passagens (próximas 24 horas)

TLE

AtualizadoSource: Space-Track

Época: Sep 14, 2026, 07:17 UTC

1 60662U 24140BP  26257.30386042  .00000133  00000-0  65360-4 0  9990
2 60662  88.9637 263.2435 0091394 275.2075  83.8685 14.09898995107987

Acompanhe CZ-6A DEB em tempo real com AllMySat

Download on the App Store